Regional Weather Roundup
Issued by NWS

Current Version | Previous Version | Text Only | Print | Product List | Glossary On
Versions: 1 2 3 4 5 6 7 8 9 10 11 12 13 14 15 16 17 18 19 20 21 22 23 24 25 26 27 28 29 30 31 32 33 34 35 36 37 38 39 40 41 42 43 44 45 46 47 48 49 50
000
ASUS44 KFWD 240115
RWRTX
NORTH TEXAS HOURLY WEATHER ROUNDUP
NATIONAL WEATHER SERVICE FORT WORTH TX
800 PM CDT FRI JUN 23 2017

NOTE: "FAIR" INDICATES FEW OR NO CLOUDS BELOW 12,000 FEET WITH NO
SIGNIFICANT WEATHER AND/OR OBSTRUCTIONS TO VISIBILITY.

TXZ118-119-240200-
DALLAS/FORT WORTH METROPLEX

CITY           SKY/WX    TMP DP  RH WIND       PRES   REMARKS
DFW AIRPORT    PTCLDY    95  72  47 E12       29.80R HX 103
DALLAS LOVE    PTCLDY    95  69  42 E9        29.80R HX 100
FTW MEACHAM    CLEAR     96  73  47 E10       29.81R HX 105
DAL-EXECUTIVE  CLEAR     94  74  52 E8        29.80R HX 104
FTW-ALLIANCE   MOCLDY    95  69  42 NE9       29.81R HX 100
FTW-NAS-JRB    PTCLDY    95  71  45 E9        29.81R HX 102
FTW-SPINKS     CLEAR     92  73  54 SE5       29.83R HX 100
ARLINGTON      CLEAR     93  73  52 E7        29.81R HX 102
GRAND PRAIRIE  CLEAR     93  72  49 SE7       29.81R HX 100
ADDISON        CLEAR     95  68  41 E9        29.81R HX  99
MESQUITE       CLEAR     91  73  55 E6        29.81R HX 100
LANCASTER      CLEAR     92  75  57 E6        29.82R HX 103
$$

TXZ091>094-102>105-117-120-121-131>134-240200-
NORTH CENTRAL TEXAS

CITY           SKY/WX    TMP DP  RH WIND       PRES   REMARKS
SHRMAN/DENISON CLEAR     90  74  59 NE8       29.85R HX  98
GAINESVILLE    CLEAR     89  71  54 E5        29.87R HX  94
BOWIE          PTCLDY    89  72  55 CALM      29.86R HX  96
BRIDGEPORT     CLEAR     91  66  44 E3        29.85R HX  93
DECATUR        PTCLDY    91  72  53 E6        29.85R HX  98
DENTON         CLEAR     93  73  52 NE9       29.82R HX 102
MCKINNEY       CLEAR     91  77  63 E3        29.83R HX 104
BONHAM         CLEAR     90  75  62 E3        29.84S HX 100
GREENVILLE     PTCLDY    91  77  62 E3        29.84R HX 105
ROCKWALL       CLEAR     91  76  62 E5        29.83R HX 102
TERRELL        CLEAR     92  75  57 SE6       29.82R HX 103
WAXAHACHIE     CLEAR     91  77  63 CALM      29.82R HX 103
CLEBURNE       CLEAR     91  77  62 SE9       29.83R HX 105
GRANBURY       CLEAR     94  72  48 E7        29.82R HX 102
$$

TXZ083>090-098>101-113>116-127>130-139>142-154-155-240200-
WESTERN NORTH TEXAS

CITY           SKY/WX    TMP DP  RH WIND       PRES   REMARKS
WICHITA FALLS  CLOUDY    93  69  45 NE22      29.85R HX  98
WF-KICKAPOO    CLOUDY    93  72  50 NE15      29.87R HX 101
VERNON         CLEAR     92  61  35 NE18G24   29.90R HX  92
ABILENE        CLOUDY    91  64  40 SE6       29.85R HX  92
ABILENE-DYESS  CLOUDY    92  67  42 E9G20     29.82R HX  95
GRAHAM         CLOUDY    95  65  37 E7        29.82R HX  97
BRECKENRIDGE   CLOUDY    96  62  32 E8        29.81R HX  96
CISCO          CLOUDY    90  70  51 E8        29.84S HX  95
EASTLAND       MOCLDY    91  71  51 E7        29.82F HX  97
MINERAL WELLS  CLOUDY    93  71  48 E7        29.81R HX 100
STEPHENVILLE   CLOUDY    92  69  46 CALM      29.86R HX  96
COMANCHE       CLOUDY    92  68  44 E7        29.83R HX  96
BROWNWOOD      LGT RAIN  95  66  38 E9        29.81S HX  98
COLEMAN        CLOUDY    95  62  32 NE9       29.83R HX  96
$$

TXZ143>147-156>162-174-175-240200-
CENTRAL TEXAS

CITY           SKY/WX    TMP DP  RH WIND       PRES   REMARKS
WACO           CLEAR     94  73  50 SE15      29.79R HX 103
WACO-TSTC      CLEAR     93  73  52 SE8       29.79R HX 102
WACO-MCGREGOR  CLEAR     93  75  55 SE13      29.80R HX 104
HILLSBORO      CLEAR     92  77  61 E6        29.81R HX 106
CORSICANA      CLEAR     92  77  61 SE10      29.82R HX 105
MEXIA          CLEAR     90  74  59 SE7       29.81R HX 100
HEARNE         PTCLDY    91  76  61 SE5       29.81R HX 101
CAMERON        CLEAR     92  74  54 SE5       29.80R HX 102
TEMPLE         CLEAR     94  73  50 E15       29.80R HX 103
KILLEEN        CLEAR     94  71  47 E16       29.79R HX 102
KILLEEN-SKYLRK CLEAR     94  74  52 SE12G18   29.80R HX 104
FORT HOOD      CLEAR     94  73  49 SE15      29.77R HX 102
HAMILTON       CLEAR     94  68  41 SE7       29.83R HX  98
LAMPASAS       CLEAR     96  72  45 SE7       29.81R HX 104
$$

TXZ095>097-106>112-122>126-135>138-148>153-164>167-240200-
EAST TEXAS

CITY           SKY/WX    TMP DP  RH WIND       PRES   REMARKS
PARIS            N/A     89  78  70 SE6       29.83R HX 103
SULPHUR SPRNGS CLOUDY    91  75  59 SE5       29.86R HAZE    HX 101
MOUNT PLEASANT PTCLDY    87  77  72 SE3       29.85R HX  98
GILMER         MOCLDY    86  79  79 CALM      29.84R HX 100
MINEOLA        PTCLDY    88  79  74 SE3       29.84R HX 102
TYLER          CLOUDY    88  79  74 SE8       29.84R HX 103
LONGVIEW       PTCLDY    86  80  82 CALM      29.84R HX 101
MARSHALL       PTCLDY    85  80  83 CALM      29.87R HX  99
PALESTINE      CLOUDY    88  78  72 E6        29.85R HX 102
JACKSONVILLE   PTCLDY    85  78  79 CALM      29.88R HX  97
HENDERSON      PTCLDY    84  78  82 CALM      29.86R HX  96
CENTER         PTCLDY    89  83  82 CALM      29.87R HX 110
NACOGDOCHES    CLEAR     84  79  84 MISG      29.83R HX  96
LUFKIN         PTCLDY    84  78  82 SE3       29.84R HX  95
$$

SUPPLEMENTAL OBSERVATIONS (NWS FORT WORTH AREA)

CITY           SKY/WX    TMP DP  RH WIND       PRES   REMARKS
DENISON DAM      N/A     90  73  58 NE6         N/A  HX  98
CADDO GRASSLND   N/A     90  77  66 N3          N/A  HX 102
PAT MAYSE LAKE   N/A     81  77  89 N6          N/A
GREENVILLE       N/A     90  75  62 SE5         N/A  HX 100
CEDAR HILL       N/A     90  72  55 CALM        N/A  HX  96
LBJ GRASSLAND    N/A     91  70  49 NE2         N/A  HX  97
POSSUM KINGDOM   N/A     95  68  41 E9          N/A  HX  99
GRANBURY         N/A     93  72  49 E6G14       N/A  HX 100
COMANCHE         N/A     91  68  46 E7          N/A  HX  95
MCGREGOR         N/A     93  72  49 SE8G17      N/A  HX 100
TEMPLE           N/A     93  72  49 SE7G16      N/A  HX 100
LAKE LIMESTONE   N/A     90  75  62 SE5         N/A  HX 100
ATHENS           N/A     88  77  70 SE10        N/A  HX 100
$$

SUPPLEMENTAL OBSERVATIONS (NWS NORMAN AREA)

CITY           SKY/WX    TMP DP  RH WIND       PRES   REMARKS
GOODLETT         N/A     89  61  38 NE21G29   29.92R
ODELL            N/A     89  68  49 NE15      29.92R HX  92
CROWELL          N/A     93  69  45 NE21      29.90R HX  97
KNOX CITY        N/A     94  62  33 NE13      29.86R HX  95
MILLERS CREEK    N/A     95  64  36 NE13        N/A  HX  97
$$

SUPPLEMENTAL OBSERVATIONS (NWS SAN ANGELO AREA)

CITY           SKY/WX    TMP DP  RH WIND       PRES   REMARKS
WEINERT          N/A     94  65  38 NE15      29.86R HX  97
HASKELL          N/A     94  58  29 E13G18    29.86R HX  93
THROCKMORTON     N/A     93  68  44 E7        29.85S HX  97
STAMFORD         N/A     95  66  38 NE16      29.85R HX  98
CLYDE            N/A     91  67  45 E8        29.88R HX  94
HAMBY            N/A     91  63  38 NE1G13      N/A  HX  92
IVIE RESERVOIR   N/A     99  59  26 E13         N/A  HX  98
COLORADO BEND    N/A     95  64  36 S7G15       N/A  HX  97
$$

SUPPLEMENTAL OBSERVATIONS (NWS SHREVEPORT AREA)

CITY           SKY/WX    TMP DP  RH WIND       PRES   REMARKS
CLARKSVILLE      N/A     88  77  70 SE5         N/A  HX 100
CADDO LAKE       N/A     84  79  84 CALM        N/A  HX  96
GILMER           N/A     88  79  74 SE3         N/A  HX 102
HENDERSON        N/A     84  77  79 SE2         N/A  HX  94
LUFKIN           N/A     84  77  79 MISG        N/A  HX  94
S SABINE NF      N/A     84  81  89 CALM        N/A  HX  98
$$

SUPPLEMENTAL OBSERVATIONS ARE A COLLECTION OF AUTOMATED INSTRUMENTS
THAT ARE MAINTAINED BY A VARIETY OF FEDERAL AND STATE AGENCIES.
CERTAIN ELEMENTS...SUCH AS HUMIDITY VALUES AND SUSTAINED WIND
SPEEDS...MAY BE APPROXIMATED.




USA.gov is the U.S. government's official web portal to all federal, state and local government web resources and services.